Home > Weather > Yverdon-les-Bains > Past weeks

Flag for Switzerland Weather for the Past 2 Weeks in Yverdon-les-Bains, Vaud, Switzerland

Now
39 °F

Overcast.


Feels Like: 33 °F
Forecast: 36 / 44 °F
Wind: 10 mph from Southwest

Location: Payerne

Current Time: Feb 13, 2016 at 8:38:49 AM

Latest Report: Feb 13, 2016 at 7:00 AM


Visibility: 11 mi

Pressure: 29.41 "Hg

Humidity: 80%

Dew point: 34 °F

Location of Yverdon-les-BainsLocation

Historic Weather in Yverdon-les-Bains — Graph

°F

Yverdon-les-Bains Temperature Yesterday

Maximum temperature yesterday: 37 °F (at 12:00 PM)
Minimum temperature yesterday: 32 °F (at 6:00 PM)
Average temperature yesterday: 34 °F

High & Low Weather Summary for the Past Weeks

 TemperatureHumidityPressure
High57 °F (Feb 1, 1:00 PM)100% (Feb 6, 5:00 AM)30.57 "Hg (Feb 6, 5:00 AM)
Low28 °F (Feb 11, 8:00 AM)48% (Jan 30, 3:00 PM)29.35 "Hg (Feb 9, 6:00 PM)
Average42 °F81%30.06 "Hg
* Reported Jan 29 7:00 AM — Feb 13 7:00 AM, Yverdon-les-Bains, Weather by CustomWeather, © 2016

Note: Actual official high and low records may vary slightly from our data, if they occured in-between our weather recording intervals... More about our weather records

Advertising

Yverdon-les-Bains Weather History for the Previous 24 Hours

 ConditionsComfort  
Time TempWeatherWind HumidityBarometerVisibility
7:00 AM
Sat, Feb 13
39 °FOvercast.10 mph80%29.41 "Hg11 mi
6:00 AM38 °FChilly.8 mph84%29.44 "HgN/A
5:00 AM38 °FChilly.10 mph86%29.44 "HgN/A
9:00 PM
Fri, Feb 12
33 °FChilly.No wind98%29.41 "HgN/A
8:00 PM34 °FChilly.2 mph93%29.41 "HgN/A
7:00 PM33 °FSnow. Low clouds.No wind96%29.44 "Hg2 mi
6:00 PM32 °FChilly.No wind98%29.44 "HgN/A
5:00 PM33 °FChilly.No wind97%29.41 "HgN/A
4:00 PM33 °FChilly.No wind98%29.41 "HgN/A
3:00 PM33 °FChilly.No wind96%29.44 "HgN/A
2:00 PM33 °FChilly.No wind97%29.44 "HgN/A
1:00 PM36 °FLight rain. Overcast.5 mph84%29.47 "Hg2 mi
12:00 PM37 °FChilly.1 mph77%29.54 "HgN/A
11:00 AM36 °FChilly.2 mph80%29.58 "HgN/A
10:00 AM35 °FOvercast.1 mph87%29.61 "Hg12 mi
9:00 AM34 °FChilly.3 mph83%29.64 "HgN/A
8:00 AM34 °FChilly.No wind88%29.67 "HgN/A
Weather by CustomWeather, © 2016

See weather overviewHow to use our weather pages